Temp: 6.2°C   Baro: 1000.2mb
  Wind: 0.0mph   Dir: WSW (250°)
  Rain: 0.0mm (0.0mm/hr)
  Solar: 104W/m2  Hum: 91%
 
Bath Spa Weather Historical Data
Daily Summary for July 9, 2019 Units:  Metric    English   Both
Next Day »
Daily Weekly Monthly Yearly Custom
  High: Low: Average:
Temperature: 23.8 °C 13.4 °C 18.3 °C
Dew Point: 16.2 °C 8.5 °C 12.8 °C
Humidity: 83% 59% 70%
Wind Speed: 17.7km/h 0.0km/h 4km/h
Wind Gust: 17.7km/h - -
Wind direction- - WNW
Pressure: 1020.9 hPa 1019.5 hPa -
Precipitation: 0.0 mm    
Historical Graphs
 
 
Tabular Data for July 9, 2019
Time Temperature Dew Point Pressure Wind direction Wind Speed Wind Gust Humidity Rainfall Rate (Hourly) solar
00:04 15.5 °C 8.7 °C 1020.5 hPa Calm   3.2 km/h 64% 0.0 mm 0.00 W/m2
00:09 15.4 °C 8.6 °C 1020.5 hPa NNW 4.7 km/h 4.8 km/h 64% 0.0 mm 0.00 W/m2
00:14 15.4 °C 8.6 °C 1020.5 hPa NNW 3.2 km/h 4.8 km/h 64% 0.0 mm 0.00 W/m2
00:19 15.3 °C 8.8 °C 1020.5 hPa NNW 6.4 km/h 6.4 km/h 65% 0.0 mm 0.00 W/m2
00:24 15.2 °C 8.9 °C 1020.5 hPa Calm   3.2 km/h 66% 0.0 mm 0.00 W/m2
00:29 15.1 °C 9.0 °C 1020.9 hPa Calm     67% 0.0 mm 0.00 W/m2
00:34 15.0 °C 9.1 °C 1020.9 hPa NNW 3.2 km/h 3.2 km/h 68% 0.0 mm 0.00 W/m2
00:39 14.9 °C 9.0 °C 1020.9 hPa NNW 1.4 km/h 3.2 km/h 68% 0.0 mm 0.00 W/m2
00:44 14.9 °C 9.0 °C 1020.9 hPa Calm   1.6 km/h 68% 0.0 mm 0.00 W/m2
00:49 14.9 °C 8.8 °C 1020.5 hPa Calm     67% 0.0 mm 0.00 W/m2
00:54 14.9 °C 9.0 °C 1020.5 hPa Calm   1.6 km/h 68% 0.0 mm 0.00 W/m2
00:59 14.9 °C 9.0 °C 1020.5 hPa Calm     68% 0.0 mm 0.00 W/m2
01:04 14.8 °C 9.2 °C 1020.5 hPa Calm     69% 0.0 mm 0.00 W/m2
01:09 14.7 °C 9.1 °C 1020.5 hPa Calm     69% 0.0 mm 0.00 W/m2
01:14 14.7 °C 9.1 °C 1020.5 hPa Calm     69% 0.0 mm 0.00 W/m2
01:19 14.6 °C 9.0 °C 1020.5 hPa Calm     69% 0.0 mm 0.00 W/m2
01:24 14.5 °C 9.1 °C 1020.5 hPa Calm     70% 0.0 mm 0.00 W/m2
01:29 14.5 °C 9.1 °C 1020.5 hPa Calm     70% 0.0 mm 0.00 W/m2
01:34 14.5 °C 9.1 °C 1020.5 hPa Calm     70% 0.0 mm 0.00 W/m2
01:39 14.4 °C 9.2 °C 1020.5 hPa Calm     71% 0.0 mm 0.00 W/m2
01:44 14.4 °C 9.2 °C 1020.5 hPa Calm     71% 0.0 mm 0.00 W/m2
01:49 14.3 °C 9.1 °C 1020.5 hPa Calm     71% 0.0 mm 0.00 W/m2
01:54 14.3 °C 9.1 °C 1020.5 hPa Calm     71% 0.0 mm 0.00 W/m2
01:59 14.0 °C 9.0 °C 1020.5 hPa Calm     72% 0.0 mm 0.00 W/m2
02:04 13.8 °C 8.8 °C 1020.5 hPa Calm     72% 0.0 mm 0.00 W/m2
02:09 13.7 °C 8.7 °C 1020.5 hPa Calm     72% 0.0 mm 0.00 W/m2
02:14 13.7 °C 8.7 °C 1020.5 hPa NNW 3.2 km/h 3.2 km/h 72% 0.0 mm 0.00 W/m2
02:19 13.5 °C 8.6 °C 1020.5 hPa NNW 6.4 km/h 6.4 km/h 72% 0.0 mm 0.00 W/m2
02:24 13.4 °C 8.5 °C 1020.5 hPa NNW 3.2 km/h 4.8 km/h 72% 0.0 mm 0.00 W/m2
02:29 13.4 °C 8.7 °C 1020.5 hPa Calm     73% 0.0 mm 0.00 W/m2
02:34 13.4 °C 8.7 °C 1020.5 hPa Calm     73% 0.0 mm 0.00 W/m2
02:39 13.5 °C 8.8 °C 1020.5 hPa Calm     73% 0.0 mm 0.00 W/m2
02:44 13.5 °C 8.8 °C 1020.5 hPa Calm     73% 0.0 mm 0.00 W/m2
02:49 13.6 °C 8.9 °C 1020.5 hPa Calm     73% 0.0 mm 0.00 W/m2
02:54 13.6 °C 8.9 °C 1020.5 hPa Calm     73% 0.0 mm 0.00 W/m2
02:59 13.6 °C 8.9 °C 1020.5 hPa NNW 3.2 km/h 4.8 km/h 73% 0.0 mm 0.00 W/m2
03:04 13.7 °C 8.7 °C 1020.5 hPa Calm   3.2 km/h 72% 0.0 mm 0.00 W/m2
03:09 13.8 °C 8.8 °C 1020.5 hPa Calm   4.8 km/h 72% 0.0 mm 0.00 W/m2
03:14 13.9 °C 8.7 °C 1020.5 hPa Calm     71% 0.0 mm 0.00 W/m2
03:19 13.9 °C 8.7 °C 1020.5 hPa Calm     71% 0.0 mm 0.00 W/m2
03:24 14.0 °C 8.8 °C 1020.5 hPa Calm     71% 0.0 mm 0.00 W/m2
03:29 14.0 °C 8.8 °C 1020.5 hPa Calm     71% 0.0 mm 0.00 W/m2
03:34 14.0 °C 8.8 °C 1020.5 hPa Calm     71% 0.0 mm 0.00 W/m2
03:39 14.0 °C 8.8 °C 1020.5 hPa Calm   3.2 km/h 71% 0.0 mm 0.00 W/m2
03:44 14.2 °C 9.0 °C 1020.5 hPa Calm     71% 0.0 mm 0.00 W/m2
03:49 14.2 °C 8.8 °C 1020.5 hPa Calm     70% 0.0 mm 0.00 W/m2
03:54 14.3 °C 8.9 °C 1020.5 hPa Calm     70% 0.0 mm 0.00 W/m2
03:59 14.3 °C 8.9 °C 1020.5 hPa Calm     70% 0.0 mm 0.00 W/m2
04:04 14.3 °C 9.1 °C 1020.5 hPa Calm     71% 0.0 mm 0.00 W/m2
04:09 14.4 °C 9.2 °C 1020.2 hPa Calm     71% 0.0 mm 0.00 W/m2
04:14 14.4 °C 9.2 °C 1020.2 hPa Calm     71% 0.0 mm 0.00 W/m2
04:19 14.4 °C 9.2 °C 1020.2 hPa Calm     71% 0.0 mm 0.00 W/m2
04:24 14.5 °C 9.3 °C 1020.2 hPa Calm   1.6 km/h 71% 0.0 mm 0.00 W/m2
04:29 14.5 °C 9.3 °C 1020.2 hPa Calm     71% 0.0 mm 0.00 W/m2
04:34 14.5 °C 9.3 °C 1020.2 hPa NNW 1.6 km/h 1.6 km/h 71% 0.0 mm 0.00 W/m2
04:39 14.6 °C 9.4 °C 1020.2 hPa Calm   1.6 km/h 71% 0.0 mm 0.00 W/m2
04:44 14.5 °C 9.3 °C 1020.2 hPa Calm     71% 0.0 mm 0.00 W/m2
04:49 14.5 °C 9.1 °C 1020.2 hPa NNW 4.7 km/h 4.8 km/h 70% 0.0 mm 0.00 W/m2
04:54 14.6 °C 9.2 °C 1020.5 hPa WNW 3.2 km/h 8.0 km/h 70% 0.0 mm 0.00 W/m2
04:59 14.6 °C 9.2 °C 1020.5 hPa WNW 1.4 km/h 1.6 km/h 70% 0.0 mm 0.00 W/m2
05:04 14.6 °C 9.2 °C 1020.5 hPa Calm   1.6 km/h 70% 0.0 mm 0.00 W/m2
05:09 14.6 °C 9.2 °C 1020.2 hPa Calm     70% 0.0 mm 0.00 W/m2
05:14 14.7 °C 9.3 °C 1020.5 hPa Calm   1.6 km/h 70% 0.0 mm 0.00 W/m2
05:19 14.7 °C 9.3 °C 1020.5 hPa Calm     70% 0.0 mm 5.00 W/m2
05:24 14.7 °C 9.3 °C 1020.5 hPa Calm     70% 0.0 mm 9.00 W/m2
05:29 14.7 °C 9.1 °C 1020.5 hPa Calm   3.2 km/h 69% 0.0 mm 11.00 W/m2
05:34 14.7 °C 8.9 °C 1020.5 hPa Calm   6.4 km/h 68% 0.0 mm 12.00 W/m2
05:39 14.8 °C 9.0 °C 1020.5 hPa Calm   3.2 km/h 68% 0.0 mm 16.00 W/m2
05:44 14.8 °C 9.0 °C 1020.9 hPa Calm     68% 0.0 mm 19.00 W/m2
05:49 14.9 °C 9.0 °C 1020.9 hPa Calm   3.2 km/h 68% 0.0 mm 18.00 W/m2
05:54 14.9 °C 9.3 °C 1020.5 hPa Calm   1.6 km/h 69% 0.0 mm 16.00 W/m2
05:59 14.8 °C 9.0 °C 1020.9 hPa Calm     68% 0.0 mm 19.00 W/m2
06:04 14.9 °C 9.3 °C 1020.5 hPa Calm     69% 0.0 mm 25.00 W/m2
06:09 14.9 °C 9.3 °C 1020.9 hPa Calm   1.6 km/h 69% 0.0 mm 33.00 W/m2
06:14 14.9 °C 9.3 °C 1020.5 hPa Calm     69% 0.0 mm 42.00 W/m2
06:19 14.9 °C 9.5 °C 1020.5 hPa Calm     70% 0.0 mm 49.00 W/m2
06:24 15.0 °C 9.4 °C 1020.9 hPa Calm   3.2 km/h 69% 0.0 mm 46.00 W/m2
06:29 15.1 °C 9.2 °C 1020.9 hPa WNW 1.4 km/h 3.2 km/h 68% 0.0 mm 51.00 W/m2
06:34 15.1 °C 9.2 °C 1020.9 hPa Calm     68% 0.0 mm 56.00 W/m2
06:39 15.1 °C 9.2 °C 1020.9 hPa Calm     68% 0.0 mm 58.00 W/m2
06:44 15.0 °C 9.4 °C 1020.9 hPa WNW 1.4 km/h 3.2 km/h 69% 0.0 mm 69.00 W/m2
06:49 15.0 °C 9.4 °C 1020.9 hPa Calm     69% 0.0 mm 76.00 W/m2
06:54 15.0 °C 9.4 °C 1020.9 hPa Calm     69% 0.0 mm 84.00 W/m2
06:59 15.1 °C 9.5 °C 1020.9 hPa Calm     69% 0.0 mm 84.00 W/m2
07:04 15.1 °C 9.5 °C 1020.9 hPa Calm     69% 0.0 mm 90.00 W/m2
07:09 15.1 °C 9.7 °C 1020.9 hPa WNW 4.7 km/h 4.8 km/h 70% 0.0 mm 93.00 W/m2
07:14 15.0 °C 9.6 °C 1020.9 hPa WNW 8.0 km/h 8.0 km/h 70% 0.0 mm 111.00 W/m2
07:19 15.0 °C 9.6 °C 1020.9 hPa WNW 3.2 km/h 3.2 km/h 70% 0.0 mm 105.00 W/m2
07:24 15.1 °C 9.9 °C 1020.9 hPa Calm   3.2 km/h 71% 0.0 mm 132.00 W/m2
07:29 15.2 °C 10.0 °C 1020.9 hPa WNW 1.4 km/h 1.6 km/h 71% 0.0 mm 174.00 W/m2
07:34 15.3 °C 9.9 °C 1020.9 hPa Calm   1.6 km/h 70% 0.0 mm 227.00 W/m2
07:39 15.4 °C 10.0 °C 1020.9 hPa WNW 1.4 km/h 3.2 km/h 70% 0.0 mm 100.00 W/m2
07:44 15.5 °C 10.1 °C 1020.9 hPa WNW 4.8 km/h 4.8 km/h 70% 0.0 mm 265.00 W/m2
07:49 15.7 °C 10.2 °C 1020.9 hPa Calm   1.6 km/h 70% 0.0 mm 144.00 W/m2
07:54 15.8 °C 10.3 °C 1020.9 hPa WNW 3.2 km/h 4.8 km/h 70% 0.0 mm 193.00 W/m2
07:59 16.0 °C 10.5 °C 1020.9 hPa Calm   4.8 km/h 70% 0.0 mm 302.00 W/m2
08:04 16.2 °C 10.7 °C 1020.9 hPa Calm   4.8 km/h 70% 0.0 mm 276.00 W/m2
08:09 16.5 °C 11.0 °C 1020.9 hPa WNW 1.4 km/h 1.6 km/h 70% 0.0 mm 288.00 W/m2
08:14 16.7 °C 11.2 °C 1020.5 hPa WNW 6.4 km/h 6.4 km/h 70% 0.0 mm 288.00 W/m2
08:19 16.8 °C 11.3 °C 1020.5 hPa Calm   3.2 km/h 70% 0.0 mm 253.00 W/m2
08:24 17.1 °C 11.6 °C 1020.9 hPa WNW 3.2 km/h 4.8 km/h 70% 0.0 mm 211.00 W/m2
08:29 17.0 °C 11.5 °C 1020.5 hPa Calm   4.8 km/h 70% 0.0 mm 213.00 W/m2
08:34 17.2 °C 11.9 °C 1020.5 hPa WNW 3.2 km/h 4.8 km/h 71% 0.0 mm 246.00 W/m2
08:39 17.3 °C 12.0 °C 1020.5 hPa Calm   3.2 km/h 71% 0.0 mm 251.00 W/m2
08:44 17.5 °C 12.2 °C 1020.9 hPa Calm   6.4 km/h 71% 0.0 mm 250.00 W/m2
08:49 17.6 °C 12.3 °C 1020.9 hPa West 12.9 km/h 12.9 km/h 71% 0.0 mm 230.00 W/m2
08:54 17.6 °C 12.3 °C 1020.9 hPa WNW 6.4 km/h 9.7 km/h 71% 0.0 mm 220.00 W/m2
08:59 17.3 °C 12.0 °C 1020.9 hPa WNW 4.7 km/h 9.7 km/h 71% 0.0 mm 229.00 W/m2
09:04 17.4 °C 12.3 °C 1020.9 hPa Calm   8.0 km/h 72% 0.0 mm 227.00 W/m2
09:09 17.6 °C 12.5 °C 1020.9 hPa West 6.4 km/h 9.7 km/h 72% 0.0 mm 229.00 W/m2
09:14 17.7 °C 12.6 °C 1020.9 hPa West 11.3 km/h 11.3 km/h 72% 0.0 mm 237.00 W/m2
09:19 17.8 °C 12.5 °C 1020.9 hPa Calm   4.8 km/h 71% 0.0 mm 257.00 W/m2
09:24 17.9 °C 12.6 °C 1020.9 hPa WSW 3.2 km/h 8.0 km/h 71% 0.0 mm 272.00 W/m2
09:29 18.0 °C 12.7 °C 1020.9 hPa WSW 3.2 km/h 4.8 km/h 71% 0.0 mm 287.00 W/m2
09:34 18.0 °C 12.7 °C 1020.9 hPa WSW 7.9 km/h 8.0 km/h 71% 0.0 mm 290.00 W/m2
09:39 18.4 °C 13.0 °C 1020.9 hPa WSW 1.4 km/h 1.6 km/h 71% 0.0 mm 294.00 W/m2
09:44 18.5 °C 13.1 °C 1020.9 hPa Calm   3.2 km/h 71% 0.0 mm 294.00 W/m2
09:49 18.5 °C 13.1 °C 1020.9 hPa WSW 7.9 km/h 8.0 km/h 71% 0.0 mm 304.00 W/m2
09:54 18.6 °C 13.2 °C 1020.9 hPa WSW 4.7 km/h 9.7 km/h 71% 0.0 mm 323.00 W/m2
09:59 18.5 °C 13.1 °C 1020.9 hPa Calm   3.2 km/h 71% 0.0 mm 381.00 W/m2
10:04 18.7 °C 13.1 °C 1020.9 hPa WSW 7.9 km/h 12.9 km/h 70% 0.0 mm 352.00 W/m2
10:09 18.7 °C 13.3 °C 1020.9 hPa WSW 4.7 km/h 8.0 km/h 71% 0.0 mm 380.00 W/m2
10:14 19.0 °C 13.4 °C 1020.9 hPa West 3.2 km/h 9.7 km/h 70% 0.0 mm 383.00 W/m2
10:19 18.9 °C 13.3 °C 1020.9 hPa West 6.4 km/h 14.5 km/h 70% 0.0 mm 350.00 W/m2
10:24 18.9 °C 13.3 °C 1020.9 hPa West 3.2 km/h 6.4 km/h 70% 0.0 mm 306.00 W/m2
10:29 19.0 °C 13.4 °C 1020.9 hPa West 4.7 km/h 9.7 km/h 70% 0.0 mm 316.00 W/m2
10:34 19.1 °C 13.3 °C 1020.9 hPa West 1.4 km/h 8.0 km/h 69% 0.0 mm 359.00 W/m2
10:39 18.9 °C 13.1 °C 1020.9 hPa West 1.4 km/h 9.7 km/h 69% 0.0 mm 383.00 W/m2
10:44 19.2 °C 13.4 °C 1020.9 hPa West 3.2 km/h 6.4 km/h 69% 0.0 mm 404.00 W/m2
10:49 19.4 °C 13.6 °C 1020.9 hPa West 12.9 km/h 12.9 km/h 69% 0.0 mm 410.00 W/m2
10:54 19.3 °C 13.0 °C 1020.9 hPa West 6.4 km/h 9.7 km/h 67% 0.0 mm 427.00 W/m2
10:59 19.2 °C 13.1 °C 1020.9 hPa West 6.4 km/h 9.7 km/h 68% 0.0 mm 455.00 W/m2
11:04 19.4 °C 13.3 °C 1020.9 hPa WSW 3.2 km/h 9.7 km/h 68% 0.0 mm 462.00 W/m2
11:09 19.7 °C 13.4 °C 1020.9 hPa NW 6.4 km/h 8.0 km/h 67% 0.0 mm 452.00 W/m2
11:14 19.4 °C 13.3 °C 1020.5 hPa WNW 3.2 km/h 6.4 km/h 68% 0.0 mm 454.00 W/m2
11:19 19.5 °C 12.7 °C 1020.9 hPa WNW 1.4 km/h 8.0 km/h 65% 0.0 mm 411.00 W/m2
11:24 19.6 °C 13.3 °C 1020.5 hPa West 9.7 km/h 11.3 km/h 67% 0.0 mm 424.00 W/m2
11:29 19.7 °C 13.4 °C 1020.5 hPa WNW 6.4 km/h 9.7 km/h 67% 0.0 mm 457.00 W/m2
11:34 19.8 °C 13.3 °C 1020.5 hPa WSW 3.2 km/h 11.3 km/h 66% 0.0 mm 490.00 W/m2
11:39 20.0 °C 13.5 °C 1020.5 hPa WNW 7.9 km/h 8.0 km/h 66% 0.0 mm 517.00 W/m2
11:44 20.0 °C 13.5 °C 1020.5 hPa WNW 6.4 km/h 12.9 km/h 66% 0.0 mm 506.00 W/m2
11:49 20.2 °C 13.6 °C 1020.9 hPa Calm   6.4 km/h 66% 0.0 mm 487.00 W/m2
11:54 20.4 °C 13.8 °C 1020.5 hPa NNW 4.7 km/h 9.7 km/h 66% 0.0 mm 469.00 W/m2
11:59 20.8 °C 14.0 °C 1020.5 hPa WSW 4.7 km/h 4.8 km/h 65% 0.0 mm 475.00 W/m2
12:04 20.9 °C 14.1 °C 1020.5 hPa Calm   11.3 km/h 65% 0.0 mm 513.00 W/m2
12:09 21.0 °C 14.4 °C 1020.5 hPa SW 1.4 km/h 4.8 km/h 66% 0.0 mm 555.00 W/m2
12:14 21.5 °C 14.6 °C 1020.5 hPa North 1.4 km/h 6.4 km/h 65% 0.0 mm 506.00 W/m2
12:19 21.5 °C 14.2 °C 1020.5 hPa NW 11.3 km/h 11.3 km/h 63% 0.0 mm 529.00 W/m2
12:24 21.2 °C 13.9 °C 1020.5 hPa WSW 1.4 km/h 6.4 km/h 63% 0.0 mm 526.00 W/m2
12:29 21.2 °C 14.4 °C 1020.5 hPa West 9.7 km/h 9.7 km/h 65% 0.0 mm 606.00 W/m2
12:34 21.0 °C 14.4 °C 1020.5 hPa NW 6.4 km/h 11.3 km/h 66% 0.0 mm 963.00 W/m2
12:39 21.5 °C 14.6 °C 1020.5 hPa WNW 3.2 km/h 9.7 km/h 65% 0.0 mm 524.00 W/m2
12:44 21.6 °C 14.5 °C 1020.5 hPa West 4.7 km/h 8.0 km/h 64% 0.0 mm 619.00 W/m2
12:49 21.8 °C 14.9 °C 1020.5 hPa WSW 4.7 km/h 6.4 km/h 65% 0.0 mm 571.00 W/m2
12:54 21.6 °C 14.7 °C 1020.5 hPa West 1.4 km/h 14.5 km/h 65% 0.0 mm 652.00 W/m2
12:59 22.0 °C 14.4 °C 1020.5 hPa WSW 7.9 km/h 11.3 km/h 62% 0.0 mm 582.00 W/m2
13:04 21.5 °C 14.4 °C 1020.5 hPa NNW 9.7 km/h 9.7 km/h 64% 0.0 mm 577.00 W/m2
13:09 22.1 °C 14.5 °C 1020.5 hPa West 11.1 km/h 14.5 km/h 62% 0.0 mm 550.00 W/m2
13:14 21.8 °C 14.4 °C 1020.5 hPa West 4.7 km/h 9.7 km/h 63% 0.0 mm 571.00 W/m2
13:19 21.9 °C 14.5 °C 1020.5 hPa NNW 4.7 km/h 12.9 km/h 63% 0.0 mm 650.00 W/m2
13:24 22.2 °C 14.8 °C 1020.5 hPa WNW 9.7 km/h 14.5 km/h 63% 0.0 mm 844.00 W/m2
13:29 22.2 °C 14.6 °C 1020.5 hPa West 1.4 km/h 9.7 km/h 62% 0.0 mm 522.00 W/m2
13:34 22.3 °C 14.7 °C 1020.5 hPa NW 1.4 km/h 8.0 km/h 62% 0.0 mm 438.00 W/m2
13:39 22.7 °C 14.5 °C 1020.5 hPa WSW 6.4 km/h 9.7 km/h 60% 0.0 mm 443.00 W/m2
13:44 22.6 °C 14.7 °C 1020.5 hPa NW 6.4 km/h 11.3 km/h 61% 0.0 mm 496.00 W/m2
13:49 22.4 °C 14.3 °C 1020.5 hPa WNW 7.9 km/h 12.9 km/h 60% 0.0 mm 499.00 W/m2
13:54 22.5 °C 14.6 °C 1020.2 hPa WNW 1.4 km/h 9.7 km/h 61% 0.0 mm 1065.00 W/m2
13:59 23.0 °C 15.1 °C 1020.2 hPa WNW 9.7 km/h 11.3 km/h 61% 0.0 mm 1058.00 W/m2
14:04 23.8 °C 15.3 °C 1020.2 hPa West 9.7 km/h 14.5 km/h 59% 0.0 mm 1081.00 W/m2
14:09 23.2 °C 15.0 °C 1020.2 hPa West 4.7 km/h 9.7 km/h 60% 0.0 mm 471.00 W/m2
14:14 22.8 °C 14.9 °C 1019.9 hPa WSW 1.4 km/h 14.5 km/h 61% 0.0 mm 287.00 W/m2
14:19 22.9 °C 14.7 °C 1019.9 hPa WNW 7.9 km/h 8.0 km/h 60% 0.0 mm 322.00 W/m2
14:24 22.8 °C 14.9 °C 1020.2 hPa WNW 14.5 km/h 14.5 km/h 61% 0.0 mm 397.00 W/m2
14:29 22.5 °C 15.1 °C 1020.2 hPa West 17.7 km/h 17.7 km/h 63% 0.0 mm 392.00 W/m2
14:34 22.5 °C 15.1 °C 1020.2 hPa West 9.7 km/h 14.5 km/h 63% 0.0 mm 346.00 W/m2
14:39 22.3 °C 14.9 °C 1020.2 hPa NW 4.7 km/h 16.1 km/h 63% 0.0 mm 251.00 W/m2
14:44 22.4 °C 15.0 °C 1020.2 hPa NNW 1.4 km/h 14.5 km/h 63% 0.0 mm 230.00 W/m2
14:49 22.3 °C 14.9 °C 1020.2 hPa West 9.7 km/h 14.5 km/h 63% 0.0 mm 265.00 W/m2
14:54 22.2 °C 14.8 °C 1020.2 hPa WNW 4.7 km/h 9.7 km/h 63% 0.0 mm 318.00 W/m2
14:59 22.2 °C 15.1 °C 1020.2 hPa West 9.7 km/h 9.7 km/h 64% 0.0 mm 322.00 W/m2
15:04 22.0 °C 14.9 °C 1019.9 hPa West 6.4 km/h 12.9 km/h 64% 0.0 mm 299.00 W/m2
15:09 22.3 °C 15.2 °C 1019.9 hPa NNW 7.9 km/h 11.3 km/h 64% 0.0 mm 248.00 W/m2
15:14 22.4 °C 15.3 °C 1019.9 hPa Calm   8.0 km/h 64% 0.0 mm 227.00 W/m2
15:19 22.3 °C 15.2 °C 1020.2 hPa WNW 4.7 km/h 12.9 km/h 64% 0.0 mm 272.00 W/m2
15:24 22.5 °C 15.3 °C 1020.2 hPa NNW 11.1 km/h 11.3 km/h 64% 0.0 mm 334.00 W/m2
15:29 22.3 °C 15.4 °C 1020.2 hPa West 9.7 km/h 11.3 km/h 65% 0.0 mm 457.00 W/m2
15:34 22.3 °C 15.4 °C 1019.9 hPa NW 1.4 km/h 12.9 km/h 65% 0.0 mm 309.00 W/m2
15:39 22.2 °C 15.8 °C 1019.9 hPa West 6.4 km/h 11.3 km/h 67% 0.0 mm 264.00 W/m2
15:44 22.0 °C 15.8 °C 1019.9 hPa NW 3.2 km/h 11.3 km/h 68% 0.0 mm 336.00 W/m2
15:49 21.9 °C 15.5 °C 1019.9 hPa WNW 6.4 km/h 16.1 km/h 67% 0.0 mm 341.00 W/m2
15:54 22.2 °C 15.8 °C 1019.9 hPa West 7.9 km/h 11.3 km/h 67% 0.0 mm 327.00 W/m2
15:59 22.1 °C 15.7 °C 1019.9 hPa West 16.1 km/h 16.1 km/h 67% 0.0 mm 371.00 W/m2
16:04 21.8 °C 15.6 °C 1019.9 hPa WNW 3.2 km/h 14.5 km/h 68% 0.0 mm 552.00 W/m2
16:09 21.9 °C 15.5 °C 1019.9 hPa West 9.7 km/h 14.5 km/h 67% 0.0 mm 294.00 W/m2
16:14 22.2 °C 15.8 °C 1019.9 hPa WSW 4.7 km/h 12.9 km/h 67% 0.0 mm 269.00 W/m2
16:19 22.0 °C 15.6 °C 1019.9 hPa West 11.1 km/h 12.9 km/h 67% 0.0 mm 244.00 W/m2
16:24 21.8 °C 15.4 °C 1019.9 hPa NW 9.7 km/h 16.1 km/h 67% 0.0 mm 225.00 W/m2
16:29 21.8 °C 15.4 °C 1019.9 hPa West 11.1 km/h 16.1 km/h 67% 0.0 mm 167.00 W/m2
16:34 21.8 °C 15.4 °C 1019.9 hPa WNW 4.7 km/h 11.3 km/h 67% 0.0 mm 139.00 W/m2
16:39 21.8 °C 15.4 °C 1019.9 hPa West 6.4 km/h 14.5 km/h 67% 0.0 mm 160.00 W/m2
16:44 21.6 °C 15.4 °C 1019.9 hPa West 7.9 km/h 11.3 km/h 68% 0.0 mm 142.00 W/m2
16:49 21.5 °C 15.6 °C 1019.9 hPa West 4.7 km/h 14.5 km/h 69% 0.0 mm 144.00 W/m2
16:54 21.5 °C 15.6 °C 1019.9 hPa West 9.7 km/h 12.9 km/h 69% 0.0 mm 156.00 W/m2
16:59 21.6 °C 15.7 °C 1019.9 hPa West 6.4 km/h 12.9 km/h 69% 0.0 mm 171.00 W/m2
17:04 21.6 °C 15.7 °C 1019.9 hPa West 7.9 km/h 12.9 km/h 69% 0.0 mm 193.00 W/m2
17:09 21.6 °C 15.7 °C 1019.9 hPa WNW 6.4 km/h 12.9 km/h 69% 0.0 mm 213.00 W/m2
17:14 21.5 °C 15.6 °C 1019.9 hPa WNW 11.1 km/h 12.9 km/h 69% 0.0 mm 262.00 W/m2
17:19 21.7 °C 15.8 °C 1019.5 hPa West 6.4 km/h 8.0 km/h 69% 0.0 mm 343.00 W/m2
17:24 21.9 °C 15.7 °C 1019.5 hPa WNW 3.2 km/h 12.9 km/h 68% 0.0 mm 352.00 W/m2
17:29 21.9 °C 16.0 °C 1019.5 hPa WNW 14.5 km/h 14.5 km/h 69% 0.0 mm 308.00 W/m2
17:34 21.8 °C 15.9 °C 1019.5 hPa West 9.7 km/h 11.3 km/h 69% 0.0 mm 264.00 W/m2
17:39 21.9 °C 16.0 °C 1019.5 hPa West 6.4 km/h 11.3 km/h 69% 0.0 mm 246.00 W/m2
17:44 21.8 °C 15.9 °C 1019.5 hPa WSW 7.9 km/h 12.9 km/h 69% 0.0 mm 236.00 W/m2
17:49 21.9 °C 16.2 °C 1019.5 hPa WSW 4.7 km/h 11.3 km/h 70% 0.0 mm 241.00 W/m2
17:54 21.9 °C 16.0 °C 1019.5 hPa West 3.2 km/h 11.3 km/h 69% 0.0 mm 214.00 W/m2
17:59 21.8 °C 15.9 °C 1019.5 hPa WSW 9.7 km/h 16.1 km/h 69% 0.0 mm 206.00 W/m2
18:04 21.7 °C 15.8 °C 1019.5 hPa West 9.7 km/h 12.9 km/h 69% 0.0 mm 204.00 W/m2
18:09 21.7 °C 16.0 °C 1019.5 hPa WSW 11.1 km/h 11.3 km/h 70% 0.0 mm 197.00 W/m2
18:14 21.7 °C 16.0 °C 1019.5 hPa West 4.7 km/h 11.3 km/h 70% 0.0 mm 179.00 W/m2
18:19 21.7 °C 16.0 °C 1019.5 hPa NW 4.7 km/h 11.3 km/h 70% 0.0 mm 188.00 W/m2
18:24 21.4 °C 15.7 °C 1019.5 hPa West 13.0 km/h 14.5 km/h 70% 0.0 mm 185.00 W/m2
18:29 21.3 °C 15.8 °C 1019.5 hPa West 4.7 km/h 11.3 km/h 71% 0.0 mm 169.00 W/m2
18:34 21.4 °C 15.9 °C 1019.5 hPa WNW 6.4 km/h 12.9 km/h 71% 0.0 mm 165.00 W/m2
18:39 21.3 °C 15.8 °C 1019.5 hPa West 4.7 km/h 11.3 km/h 71% 0.0 mm 151.00 W/m2
18:44 21.2 °C 15.9 °C 1019.5 hPa West 13.0 km/h 14.5 km/h 72% 0.0 mm 137.00 W/m2
18:49 21.1 °C 15.9 °C 1019.5 hPa West 6.4 km/h 12.9 km/h 72% 0.0 mm 111.00 W/m2
18:54 20.9 °C 15.9 °C 1019.5 hPa West 16.1 km/h 16.1 km/h 73% 0.0 mm 104.00 W/m2
18:59 21.0 °C 16.0 °C 1019.5 hPa West 6.4 km/h 9.7 km/h 73% 0.0 mm 120.00 W/m2
19:04 21.0 °C 16.0 °C 1019.5 hPa West 9.7 km/h 12.9 km/h 73% 0.0 mm 118.00 W/m2
19:09 20.9 °C 15.9 °C 1019.5 hPa WNW 9.7 km/h 12.9 km/h 73% 0.0 mm 114.00 W/m2
19:14 20.9 °C 15.9 °C 1019.5 hPa West 6.4 km/h 16.1 km/h 73% 0.0 mm 118.00 W/m2
19:19 20.9 °C 15.9 °C 1019.5 hPa West 4.7 km/h 9.7 km/h 73% 0.0 mm 116.00 W/m2
19:24 20.8 °C 15.8 °C 1019.5 hPa West 9.7 km/h 14.5 km/h 73% 0.0 mm 113.00 W/m2
19:29 20.7 °C 15.7 °C 1019.5 hPa WNW 9.7 km/h 9.7 km/h 73% 0.0 mm 113.00 W/m2
19:34 20.8 °C 15.8 °C 1019.5 hPa Calm   14.5 km/h 73% 0.0 mm 86.00 W/m2
19:39 20.8 °C 15.8 °C 1019.5 hPa West 3.2 km/h 8.0 km/h 73% 0.0 mm 76.00 W/m2
19:44 20.7 °C 15.7 °C 1019.9 hPa NW 6.4 km/h 11.3 km/h 73% 0.0 mm 63.00 W/m2
19:49 20.7 °C 15.7 °C 1019.9 hPa West 4.7 km/h 11.3 km/h 73% 0.0 mm 63.00 W/m2
19:54 20.6 °C 15.6 °C 1019.9 hPa West 7.9 km/h 11.3 km/h 73% 0.0 mm 63.00 W/m2
19:59 20.6 °C 15.6 °C 1019.9 hPa West 7.9 km/h 9.7 km/h 73% 0.0 mm 62.00 W/m2
20:04 20.5 °C 15.7 °C 1019.9 hPa West 6.4 km/h 14.5 km/h 74% 0.0 mm 63.00 W/m2
20:09 20.4 °C 15.6 °C 1019.9 hPa West 6.4 km/h 11.3 km/h 74% 0.0 mm 67.00 W/m2
20:14 20.3 °C 15.5 °C 1019.9 hPa West 9.7 km/h 12.9 km/h 74% 0.0 mm 62.00 W/m2
20:19 20.3 °C 15.5 °C 1019.9 hPa West 9.7 km/h 12.9 km/h 74% 0.0 mm 51.00 W/m2
20:24 20.2 °C 15.4 °C 1019.9 hPa West 9.7 km/h 9.7 km/h 74% 0.0 mm 44.00 W/m2
20:29 20.0 °C 15.4 °C 1019.9 hPa West 6.4 km/h 9.7 km/h 75% 0.0 mm 35.00 W/m2
20:34 20.0 °C 15.4 °C 1019.9 hPa West 6.4 km/h 8.0 km/h 75% 0.0 mm 26.00 W/m2
20:39 19.9 °C 15.3 °C 1019.9 hPa WNW 3.2 km/h 8.0 km/h 75% 0.0 mm 18.00 W/m2
20:44 19.8 °C 15.4 °C 1019.9 hPa WNW 4.7 km/h 8.0 km/h 76% 0.0 mm 14.00 W/m2
20:49 19.6 °C 15.3 °C 1019.9 hPa West 9.7 km/h 11.3 km/h 76% 0.0 mm 11.00 W/m2
20:54 19.4 °C 15.3 °C 1020.2 hPa WNW 12.9 km/h 12.9 km/h 77% 0.0 mm 9.00 W/m2
20:59 19.3 °C 15.2 °C 1020.2 hPa WNW 4.7 km/h 9.7 km/h 77% 0.0 mm 7.00 W/m2
21:04 19.2 °C 15.1 °C 1020.2 hPa WNW 4.7 km/h 9.7 km/h 77% 0.0 mm 7.00 W/m2
21:09 19.2 °C 15.3 °C 1020.2 hPa West 1.4 km/h 6.4 km/h 78% 0.0 mm 7.00 W/m2
21:14 19.1 °C 15.2 °C 1020.2 hPa West 9.7 km/h 9.7 km/h 78% 0.0 mm 5.00 W/m2
21:19 19.0 °C 15.3 °C 1020.2 hPa West 4.7 km/h 6.4 km/h 79% 0.0 mm 0.00 W/m2
21:24 18.9 °C 15.2 °C 1020.2 hPa WNW 6.4 km/h 8.0 km/h 79% 0.0 mm 0.00 W/m2
21:29 18.9 °C 15.2 °C 1020.2 hPa WNW 6.4 km/h 6.4 km/h 79% 0.0 mm 0.00 W/m2
21:34 18.8 °C 15.1 °C 1020.2 hPa West 3.2 km/h 11.3 km/h 79% 0.0 mm 0.00 W/m2
21:39 18.8 °C 15.1 °C 1020.2 hPa WNW 6.4 km/h 9.7 km/h 79% 0.0 mm 0.00 W/m2
21:44 18.7 °C 15.2 °C 1020.2 hPa WNW 7.9 km/h 9.7 km/h 80% 0.0 mm 0.00 W/m2
21:49 18.7 °C 15.2 °C 1020.2 hPa WNW 3.2 km/h 8.0 km/h 80% 0.0 mm 0.00 W/m2
21:54 18.6 °C 15.1 °C 1020.2 hPa WNW 6.4 km/h 9.7 km/h 80% 0.0 mm 0.00 W/m2
21:59 18.5 °C 15.0 °C 1020.2 hPa Calm   3.2 km/h 80% 0.0 mm 0.00 W/m2
22:04 18.5 °C 15.0 °C 1020.2 hPa WNW 1.4 km/h 9.7 km/h 80% 0.0 mm 0.00 W/m2
22:09 18.4 °C 14.9 °C 1020.2 hPa Calm   4.8 km/h 80% 0.0 mm 0.00 W/m2
22:14 18.4 °C 14.9 °C 1020.2 hPa WNW 1.4 km/h 6.4 km/h 80% 0.0 mm 0.00 W/m2
22:19 18.4 °C 14.9 °C 1020.2 hPa WNW 4.7 km/h 9.7 km/h 80% 0.0 mm 0.00 W/m2
22:24 18.3 °C 15.0 °C 1020.2 hPa WNW 1.4 km/h 4.8 km/h 81% 0.0 mm 0.00 W/m2
22:29 18.3 °C 15.0 °C 1020.5 hPa WNW 1.4 km/h 3.2 km/h 81% 0.0 mm 0.00 W/m2
22:34 18.3 °C 15.0 °C 1020.5 hPa Calm   3.2 km/h 81% 0.0 mm 0.00 W/m2
22:39 18.2 °C 14.9 °C 1020.5 hPa WNW 6.4 km/h 6.4 km/h 81% 0.0 mm 0.00 W/m2
22:44 18.1 °C 14.8 °C 1020.5 hPa WNW 3.2 km/h 4.8 km/h 81% 0.0 mm 0.00 W/m2
22:49 18.0 °C 14.7 °C 1020.5 hPa WNW 6.4 km/h 9.7 km/h 81% 0.0 mm 0.00 W/m2
22:54 18.0 °C 14.7 °C 1020.5 hPa WNW 1.4 km/h 4.8 km/h 81% 0.0 mm 0.00 W/m2
22:59 18.0 °C 14.9 °C 1020.5 hPa West 4.7 km/h 11.3 km/h 82% 0.0 mm 0.00 W/m2
23:04 18.0 °C 14.9 °C 1020.5 hPa West 3.2 km/h 4.8 km/h 82% 0.0 mm 0.00 W/m2
23:09 17.9 °C 14.8 °C 1020.5 hPa West 3.2 km/h 6.4 km/h 82% 0.0 mm 0.00 W/m2
23:14 17.9 °C 14.8 °C 1020.5 hPa Calm   4.8 km/h 82% 0.0 mm 0.00 W/m2
23:19 17.9 °C 14.8 °C 1020.5 hPa WNW 3.2 km/h 11.3 km/h 82% 0.0 mm 0.00 W/m2
23:24 17.8 °C 14.7 °C 1020.5 hPa Calm   1.6 km/h 82% 0.0 mm 0.00 W/m2
23:29 17.9 °C 14.8 °C 1020.5 hPa WNW 3.2 km/h 3.2 km/h 82% 0.0 mm 0.00 W/m2
23:34 17.8 °C 14.7 °C 1020.5 hPa Calm   3.2 km/h 82% 0.0 mm 0.00 W/m2
23:39 17.7 °C 14.6 °C 1020.5 hPa WNW 4.7 km/h 4.8 km/h 82% 0.0 mm 0.00 W/m2
23:44 17.6 °C 14.5 °C 1020.5 hPa WNW 3.2 km/h 4.8 km/h 82% 0.0 mm 0.00 W/m2
23:49 17.4 °C 14.3 °C 1020.5 hPa WNW 3.2 km/h 8.0 km/h 82% 0.0 mm 0.00 W/m2
23:54 17.3 °C 14.4 °C 1020.5 hPa Calm   6.4 km/h 83% 0.0 mm 0.00 W/m2
23:59 17.2 °C 14.3 °C 1020.5 hPa WNW 1.4 km/h 1.6 km/h 83% 0.0 mm 0.00 W/m2